EW1044 Weather Reports


Display with metric or nautical units.
time (UTC)temp
F
wind
direction
speed
MPH
gust
MPH
rain 1hr
in
rain 24hr
in
rain mn
in
humidity
%
barometer
mb
20260906161425 86 128 9.0 12.0 0.00 0.00 0.00 73 1018.8
20260906160401 85 93 7.0 13.0 0.00 0.00 0.00 74 1018.8
20260906154420 84 80 4.0 12.0 0.00 0.00 0.00 74 1018.6
20260906153419 84 80 7.0 13.0 0.00 0.00 0.00 74 1018.6
20260906152408 83 109 5.0 11.0 0.00 0.00 0.00 76 1018.5
20260906151408 83 89 5.0 12.0 0.00 0.00 0.00 78 1018.4
20260906145432 82 107 7.0 11.0 0.00 0.00 0.00 77 1018.4
20260906144441 82 113 8.0 12.0 0.00 0.00 0.00 78 1018.5
20260906143413 81 125 7.0 12.0 0.00 0.00 0.00 79 1018.4
20260906142402 81 104 4.0 11.0 0.00 0.00 0.00 80 1018.5
20260906141442 80 85 4.0 9.0 0.00 0.00 0.00 80 1018.5
20260906140427 79 112 5.0 10.0 0.00 0.00 0.00 81 1018.6
20260906135431 79 113 7.0 12.0 0.00 0.00 0.00 81 1018.6
20260906134436 78 106 5.0 10.0 0.00 0.00 0.00 84 1018.5
20260906133415 77 93 6.0 11.0 0.00 0.00 0.00 84 1018.2
20260906131405 76 102 5.0 11.0 0.00 0.00 0.00 86 1017.9
20260906130414 76 102 6.0 10.0 0.00 0.00 0.00 87 1017.7
20260906125407 75 96 7.0 11.0 0.00 0.00 0.00 89 1017.8
20260906124413 75 97 5.0 9.0 0.00 0.00 0.00 90 1017.7
20260906123426 75 88 3.0 10.0 0.00 0.00 0.00 91 1017.7
20260906122419 75 92 6.0 9.0 0.00 0.00 0.00 91 1017.5
20260906121414 75 98 5.0 8.0 0.00 0.00 0.00 91 1017.5
20260906120432 75 111 4.0 8.0 0.00 0.00 0.00 91 1017.5
20260906115406 75 100 4.0 8.0 0.00 0.00 0.00 92 1017.4
20260906114401 75 93 3.0 8.0 0.00 0.00 0.00 92 1017.3
20260906113421 75 99 4.0 9.0 0.00 0.00 0.00 92 1017.3
20260906112424 75 89 4.0 8.0 0.00 0.00 0.00 92 1017.3
20260906111403 75 106 5.0 10.0 0.00 0.00 0.00 92 1017.2
20260906110412 76 107 4.0 8.0 0.00 0.00 0.00 92 1017.2
20260906104439 76 105 4.0 7.0 0.00 0.00 0.00 92 1017.0
20260906103419 76 85 3.0 7.0 0.00 0.00 0.00 92 1017.0
20260906102413 76 90 3.0 8.0 0.00 0.00 0.00 92 1017.0
20260906101445 76 87 2.0 7.0 0.00 0.00 0.00 92 1016.9
20260906100436 76 67 5.0 9.0 0.00 0.00 0.00 92 1016.8
20260906095440 76 72 3.0 7.0 0.00 0.00 0.00 92 1016.7
20260906094415 76 85 4.0 8.0 0.00 0.00 0.00 92 1016.6
20260906093442 76 84 4.0 7.0 0.00 0.00 0.00 91 1016.6
20260906092410 77 90 3.0 9.0 0.00 0.00 0.00 91 1016.3
20260906091400 77 83 3.0 8.0 0.00 0.00 0.00 91 1016.3
20260906090409 77 88 3.0 9.0 0.00 0.00 0.00 90 1016.2
20260906085444 77 71 4.0 8.0 0.00 0.00 0.00 90 1016.3
20260906083434 77 68 4.0 9.0 0.00 0.00 0.00 89 1016.2
20260906082414 77 67 6.0 10.0 0.00 0.00 0.00 89 1016.1
20260906081414 77 72 4.0 8.0 0.00 0.00 0.00 89 1016.0
20260906075408 77 75 5.0 8.0 0.00 0.00 0.00 89 1015.9
20260906074442 77 77 4.0 7.0 0.00 0.00 0.00 88 1015.9
20260906073434 77 69 3.0 5.0 0.00 0.00 0.00 88 1016.1
20260906072438 77 69 3.0 5.0 0.00 0.00 0.00 88 1016.1
20260906071433 77 83 3.0 4.0 0.00 0.00 0.00 88 1016.2
20260906070414 77 85 0.0 3.0 0.00 0.00 0.00 88 1016.1
20260906065422 76 85 1.0 4.0 0.00 0.00 0.00 88 1016.0
20260906064436 76 81 3.0 5.0 0.00 0.00 0.00 87 1016.2
20260906063429 77 95 0.0 0.0 0.00 0.00 0.00 87 1016.2
20260906062417 77 95 0.0 0.0 0.00 0.00 0.00 85 1016.2
20260906061417 78 95 0.0 0.0 0.00 0.00 0.00 85 1016.2
20260906060441 78 95 0.0 0.0 0.00 0.00 0.00 84 1016.3
20260906054434 79 95 0.0 0.0 0.00 0.00 0.00 82 1016.3
20260906053412 79 95 0.0 0.0 0.00 0.00 0.00 81 1016.3
20260906050427 81 95 1.0 3.0 0.00 0.00 0.00 79 1016.2
20260906045418 81 95 2.0 3.0 0.00 0.00 0.00 79 1016.0
20260906044412 81 96 2.0 4.0 0.00 0.00 0.00 78 1016.1
20260906043427 82 96 1.0 3.0 0.00 0.00 0.00 77 1016.1
20260906042437 82 96 2.0 5.0 0.00 0.00 0.00 76 1016.0
20260906040422 82 96 2.0 4.0 0.00 0.00 0.00 75 1015.9
20260906035424 83 96 2.0 6.0 0.00 0.00 0.00 74 1015.9
20260906034421 83 98 3.0 4.0 0.00 0.00 0.00 74 1015.7
20260906033404 83 98 2.0 6.0 0.00 0.00 0.00 73 1015.6
20260906032417 83 109 4.0 7.0 0.00 0.00 0.00 72 1015.5
20260906031420 84 110 3.0 7.0 0.00 0.00 0.00 71 1015.4
20260906030418 84 105 4.0 7.0 0.00 0.00 0.00 71 1015.5
20260906025400 84 82 2.0 5.0 0.00 0.00 0.00 70 1015.5
20260906024408 84 84 2.0 7.0 0.00 0.00 0.00 69 1015.5
20260906023401 84 73 3.0 6.0 0.00 0.00 0.00 69 1015.3
20260906022408 84 76 3.0 5.0 0.00 0.00 0.00 69 1015.2
20260906020421 84 68 3.0 5.0 0.00 0.00 0.00 69 1015.0
20260906015433 84 62 3.0 5.0 0.00 0.00 0.00 69 1014.8
20260906014441 85 62 2.0 4.0 0.00 0.00 0.00 68 1014.6
20260906012407 85 60 3.0 5.0 0.00 0.00 0.00 67 1014.4
20260906011434 87 60 2.0 4.0 0.00 0.00 0.00 68 1014.3
20260906010405 88 60 0.0 0.0 0.00 0.00 0.00 63 1014.2
20260906005426 88 60 1.0 4.0 0.00 0.00 0.00 61 1014.2
20260906004432 89 60 2.0 5.0 0.00 0.00 0.00 60 1014.1
20260906003429 90 60 2.0 5.0 0.00 0.00 0.00 59 1014.1
20260906002446 91 60 4.0 7.0 0.00 0.00 0.00 58 1014.1
20260906000411 92 62 4.0 6.0 0.00 0.00 0.00 57 1014.2
20260905234421 93 72 4.0 6.0 0.00 0.00 0.00 54 1014.0
20260905233415 93 79 3.0 5.0 0.00 0.00 0.00 54 1014.0
20260905232424 94 73 2.0 5.0 0.00 0.00 0.00 52 1013.9
20260905231444 95 62 4.0 8.0 0.00 0.00 0.00 50 1013.9
20260905230430 96 75 3.0 7.0 0.00 0.00 0.00 48 1013.7
20260905225406 97 66 5.0 6.0 0.00 0.00 0.00 46 1013.7
20260905224428 98 69 3.0 11.0 0.00 0.00 0.00 45 1013.6
20260905223438 98 62 4.0 6.0 0.00 0.00 0.00 46 1013.6
20260905222411 98 64 4.0 8.0 0.00 0.00 0.00 45 1013.6
20260905221419 98 53 4.0 8.0 0.00 0.00 0.00 46 1013.6
20260905220441 99 38 6.0 8.0 0.00 0.00 0.00 44 1013.7
20260905214422 99 329 7.0 12.0 0.00 0.00 0.00 44 1013.7
20260905213443 99 300 4.0 9.0 0.00 0.00 0.00 42 1013.9
20260905212410 99 321 9.0 15.0 0.00 0.00 0.00 42 1014.2
20260905211436 99 338 5.0 8.0 0.00 0.00 0.00 43 1014.3
20260905210440 99 15 1.0 9.0 0.00 0.00 0.00 43 1014.3
20260905205404 99 313 3.0 10.0 0.00 0.00 0.00 41 1014.4
20260905204423 99 308 2.0 11.0 0.00 0.00 0.00 42 1014.5
20260905203417 99 273 4.0 10.0 0.00 0.00 0.00 43 1014.7
20260905202416 98 323 7.0 11.0 0.00 0.00 0.00 47 1014.8
20260905201442 98 317 2.0 9.0 0.00 0.00 0.00 45 1014.9
20260905195415 97 326 4.0 7.0 0.00 0.00 0.00 50 1015.2
20260905194426 97 340 4.0 8.0 0.00 0.00 0.00 44 1015.2
20260905193442 98 4 4.0 11.0 0.00 0.00 0.00 44 1015.3
20260905192415 97 339 3.0 9.0 0.00 0.00 0.00 45 1015.5
20260905191402 98 297 4.0 11.0 0.00 0.00 0.00 45 1015.5
20260905184433 97 304 5.0 12.0 0.00 0.00 0.00 48 1015.6
20260905183426 97 329 5.0 10.0 0.00 0.00 0.00 46 1015.8
20260905182439 97 329 6.0 8.0 0.00 0.00 0.00 46 1015.8
20260905181404 96 350 3.0 12.0 0.00 0.00 0.00 45 1015.9
20260905180404 97 303 6.0 13.0 0.00 0.00 0.00 45 1015.9
20260905175415 97 311 6.0 11.0 0.00 0.00 0.00 46 1016.0
20260905174446 96 308 4.0 11.0 0.00 0.00 0.00 47 1016.1
20260905173407 96 336 6.0 10.0 0.00 0.00 0.00 48 1016.4
20260905172417 96 315 7.0 10.0 0.00 0.00 0.00 52 1016.5
20260905171444 96 320 5.0 11.0 0.00 0.00 0.00 49 1016.5
20260905170411 96 288 6.0 10.0 0.00 0.00 0.00 52 1016.6
20260905165408 96 278 1.0 8.0 0.00 0.00 0.00 52 1016.7
20260905164430 96 331 4.0 10.0 0.00 0.00 0.00 51 1016.7
20260905163422 95 313 2.0 8.0 0.00 0.00 0.00 49 1016.5
20260905162433 95 322 6.0 9.0 0.00 0.00 0.00 53 1016.5